Homer, AK

6:02 PM AKST on November 21, 2017 (GMT -0900)
Homer

Weather History for PAHO - October, 2011

Change the Weather History Date:

Thursday, October 13, 2011

  Actual Average Record
Temperature  
Mean Temperature 39 °F -  
Max Temperature 46 °F 45 °F 57 °F (2016)
Min Temperature 33 °F 33 °F 19 °F (1939)
Degree Days  
Heating Degree Days 26    
Moisture  
Dew Point 31 °F    
Average Humidity 70    
Maximum Humidity 82    
Minimum Humidity 58    
Precipitation  
Precipitation 0.00 in - - ()
Sea Level Pressure  
Sea Level Pressure 29.95 in    
Wind  
Wind Speed 3 mph (ENE)    
Max Wind Speed 10 mph    
Max Gust Speed -    
Visibility 10 miles    
Events      
Averages and records for this station are not official NWS values.
T = Trace of Precipitation, MM = Missing Value Source: NWS Daily Summary

Daily Weather History Graph

Daily Weather History Graph

Search for Another Location

Airport or City:

Trip Planner

Search our weather history database for the weather conditions in past years. The results will help you decide how hot, cold, wet, or windy it might be!

Date:

Astronomy

Oct. 13, 2011 Rise Set
Actual Time 8:39 AM AKDT 7:03 PM AKDT
Civil Twilight 7:58 AM AKDT 7:45 PM AKDT
Nautical Twilight 7:10 AM AKDT 8:32 PM AKDT
Astronomical Twilight 6:21 AM AKDT 9:20 PM AKDT
Moon 6:57 PM AKDT (10/13) 11:05 AM AKDT (10/13)
Length of Visible Light 11h 47m
Length of Day
10h 23m
Full, 97% of the Moon is Illuminated
Oct 13
Full
Oct 19
Last Quarter
Oct 26
New
Nov 2
First Quarter
Nov 10
Full

Hourly Weather History & Observations

Time (AKDT) Temp. Windchill Dew Point Humidity Pressure Visibility Wind Dir Wind Speed Gust Speed Precip Events Conditions
12:53 AM 33.1 °F 28.7 °F 26.1 °F 75% 30.01 in 10.0 mi NE 4.6 mph - N/A   Overcast
1:53 AM 35.1 °F - 28.9 °F 78% 30.01 in 10.0 mi Calm Calm - N/A   Overcast
2:53 AM 35.1 °F - 30.0 °F 82% 30.01 in 10.0 mi Calm Calm - N/A   Overcast
3:53 AM 36.0 °F 31.1 °F 28.9 °F 76% 30.02 in 10.0 mi NE 5.8 mph - N/A   Overcast
4:53 AM 37.0 °F 33.3 °F 28.0 °F 70% 30.01 in 10.0 mi NE 4.6 mph - N/A   Overcast
5:53 AM 37.0 °F 33.3 °F 27.0 °F 67% 30.00 in 10.0 mi NE 4.6 mph - N/A   Overcast
6:53 AM 37.0 °F 32.4 °F 27.0 °F 67% 30.00 in 10.0 mi NE 5.8 mph - N/A   Overcast
7:53 AM 37.0 °F 34.5 °F 26.1 °F 65% 29.99 in 10.0 mi ENE 3.5 mph - N/A   Overcast
8:53 AM 37.0 °F - 28.9 °F 73% 30.00 in 10.0 mi Calm Calm - N/A   Overcast
9:53 AM 36.0 °F - 30.0 °F 79% 30.00 in 10.0 mi Calm Calm - N/A   Overcast
10:53 AM 39.0 °F 35.7 °F 30.0 °F 70% 30.01 in 10.0 mi ENE 4.6 mph - N/A   Overcast
11:53 AM 42.1 °F 37.7 °F 30.0 °F 62% 30.00 in 10.0 mi NE 6.9 mph - N/A   Overcast
12:53 PM 45.0 °F 41.8 °F 30.9 °F 58% 30.00 in 10.0 mi East 5.8 mph - N/A   Overcast
1:53 PM 44.1 °F - 33.1 °F 65% 30.00 in 10.0 mi Calm Calm - N/A   Overcast
2:53 PM 45.0 °F 40.6 °F 34.0 °F 65% 29.97 in 10.0 mi East 8.1 mph - N/A   Overcast
3:53 PM 45.0 °F - 33.1 °F 63% 29.96 in 10.0 mi Calm Calm - N/A   Overcast
4:53 PM 45.0 °F - 33.1 °F 63% 29.94 in 10.0 mi Calm Calm - N/A   Overcast
5:53 PM 45.0 °F 40.6 °F 34.0 °F 65% 29.91 in 10.0 mi SE 8.1 mph - N/A   Scattered Clouds
6:53 PM 44.1 °F 42.5 °F 32.0 °F 63% 29.89 in 10.0 mi ENE 3.5 mph - N/A   Scattered Clouds
7:53 PM 37.9 °F - 32.0 °F 79% 29.87 in 10.0 mi Calm Calm - N/A   Mostly Cloudy
8:53 PM 39.9 °F - 32.0 °F 73% 29.84 in 10.0 mi Calm Calm - N/A   Overcast
9:53 PM 39.9 °F - 33.1 °F 77% 29.81 in 10.0 mi Calm Calm - N/A   Mostly Cloudy
10:53 PM 42.1 °F 39.2 °F 33.1 °F 70% 29.77 in 10.0 mi ENE 4.6 mph - N/A   Overcast
11:53 PM 44.1 °F 38.6 °F 34.0 °F 68% 29.73 in 10.0 mi ESE 10.4 mph - N/A   Overcast